SWR72 LSZH-KIAD

Flight info

Callsign SWR72
Flight time N/A
Altitude 34000
Route VEBIT T10 TORPA DCT REKLA DCT RLP DCT ROTSI DCT KOTUN DCT AMAXA DCT VESAN DCT RATUK DCT SOVAT/N0456F360 L613 SANDY L722 ICTAM L179 SAWPE DCT OZZIL DCT ARPAK DCT FELCA DCT OFSOX DCT SLANY DCT DIMUS DCT LUNIG DCT MALOT/M080F380 DCT 53N020W 53N030W 52N040W 50N050W DCT ELSIR/N0451F380 N402C ALLEX/N0457F400 DCT KAYCC DCT KYLOH DCT BAF HYPER9
Aircraft A343/H-SDE2E3FGHIJ4J5M1RWXY/LB1D1

Departure

Time N/A
Airport Zürich Airport (LSZH)

Arrival

Time 2026-05-06 13:56
Airport Washington Dulles International Airport (KIAD)
Time Latitude Longitude Altitude Speed Heading
2026-05-06 12:58 42.54880 -72.08854 39883 ft 402 kts 236°
2026-05-06 12:58 42.51981 -72.13581 39879 ft 401 kts 236°
2026-05-06 12:59 42.37766 -72.36758 39880 ft 400 kts 236°
2026-05-06 12:59 42.27463 -72.53457 39831 ft 399 kts 236°
2026-05-06 13:00 42.23892 -72.59222 39856 ft 400 kts 236°
2026-05-06 13:00 42.20317 -72.64982 39862 ft 399 kts 236°
2026-05-06 13:01 42.16752 -72.70716 39878 ft 398 kts 236°
2026-05-06 13:01 42.13287 -72.76512 39875 ft 396 kts 238°
2026-05-06 13:02 42.10472 -72.81381 39869 ft 397 kts 238°
2026-05-06 13:02 42.07070 -72.87221 39870 ft 397 kts 238°
2026-05-06 13:03 42.03098 -72.94003 39866 ft 397 kts 238°
2026-05-06 13:03 42.00227 -72.98891 39868 ft 396 kts 238°
2026-05-06 13:04 41.96846 -73.04634 39868 ft 393 kts 238°
2026-05-06 13:04 41.93455 -73.10396 39848 ft 393 kts 238°
2026-05-06 13:05 41.90047 -73.16149 39853 ft 393 kts 238°
2026-05-06 13:05 41.86632 -73.21907 39856 ft 393 kts 238°
2026-05-06 13:06 41.83224 -73.27646 39851 ft 393 kts 238°
2026-05-06 13:06 41.79833 -73.33349 39858 ft 393 kts 238°
2026-05-06 13:07 41.76429 -73.39072 39850 ft 393 kts 239°
2026-05-06 13:07 41.73011 -73.44804 39850 ft 394 kts 238°
2026-05-06 13:08 41.69589 -73.50531 39840 ft 394 kts 239°
2026-05-06 13:08 41.66157 -73.56266 39846 ft 394 kts 238°
2026-05-06 13:09 41.62730 -73.61981 39845 ft 393 kts 239°
2026-05-06 13:09 41.59325 -73.67651 39849 ft 393 kts 239°
2026-05-06 13:10 41.55904 -73.73333 39843 ft 391 kts 239°
2026-05-06 13:10 41.52495 -73.78990 39841 ft 391 kts 239°
2026-05-06 13:11 41.48829 -73.84419 39843 ft 396 kts 234°
2026-05-06 13:11 41.44948 -73.89648 39854 ft 397 kts 234°
2026-05-06 13:12 41.41059 -73.94878 39846 ft 397 kts 234°
2026-05-06 13:12 41.37176 -74.00097 39854 ft 396 kts 234°
2026-05-06 13:13 41.33293 -74.05308 39853 ft 395 kts 234°
2026-05-06 13:13 41.29452 -74.10456 39815 ft 394 kts 234°
2026-05-06 13:14 41.25585 -74.15628 39872 ft 394 kts 234°
2026-05-06 13:14 41.21720 -74.20791 39868 ft 394 kts 234°
2026-05-06 13:15 41.18223 -74.26261 39868 ft 383 kts 244°
2026-05-06 13:15 41.15431 -74.32232 39876 ft 380 kts 246°
2026-05-06 13:16 41.12684 -74.38229 39846 ft 380 kts 246°
2026-05-06 13:16 41.09944 -74.44176 39879 ft 377 kts 246°
2026-05-06 13:17 41.07211 -74.50094 39875 ft 376 kts 246°
2026-05-06 13:17 41.04472 -74.56008 39873 ft 376 kts 246°
2026-05-06 13:18 41.01734 -74.61908 39873 ft 376 kts 246°
2026-05-06 13:18 40.99006 -74.67775 39866 ft 376 kts 246°
2026-05-06 13:19 40.96262 -74.73665 39835 ft 376 kts 246°
2026-05-06 13:19 40.93512 -74.79556 39857 ft 377 kts 246°
2026-05-06 13:20 40.90758 -74.85452 39856 ft 377 kts 246°
2026-05-06 13:20 40.87994 -74.91341 39854 ft 377 kts 246°
2026-05-06 13:21 40.85227 -74.97222 39857 ft 377 kts 246°
2026-05-06 13:21 40.82457 -75.03103 39854 ft 377 kts 246°
2026-05-06 13:22 40.79688 -75.08971 39825 ft 376 kts 246°
2026-05-06 13:22 40.76920 -75.14824 39870 ft 375 kts 246°
2026-05-06 13:23 40.74159 -75.20657 39875 ft 375 kts 246°
2026-05-06 13:23 40.71393 -75.26486 39881 ft 375 kts 246°
2026-05-06 13:24 40.68624 -75.32312 39889 ft 375 kts 246°
2026-05-06 13:24 40.65849 -75.38139 39887 ft 375 kts 246°
2026-05-06 13:25 40.63939 -75.42447 39889 ft 372 kts 249°
2026-05-06 13:25 40.61426 -75.48386 39894 ft 371 kts 249°
2026-05-06 13:26 40.58897 -75.54290 39898 ft 370 kts 249°
2026-05-06 13:26 40.56356 -75.60186 39894 ft 370 kts 249°
2026-05-06 13:26 40.55085 -75.63125 39789 ft 370 kts 249°
2026-05-06 13:27 40.53817 -75.66048 39623 ft 364 kts 249°
2026-05-06 13:27 40.52572 -75.68909 39409 ft 357 kts 249°
2026-05-06 13:27 40.51340 -75.71750 38908 ft 359 kts 249°
2026-05-06 13:27 40.50099 -75.74616 38335 ft 361 kts 249°
2026-05-06 13:28 40.48853 -75.77488 37703 ft 362 kts 249°
2026-05-06 13:28 40.47605 -75.80356 37156 ft 362 kts 248°
2026-05-06 13:28 40.46355 -75.83227 36567 ft 361 kts 248°
2026-05-06 13:28 40.45120 -75.86053 36006 ft 363 kts 248°
2026-05-06 13:29 40.43698 -75.88834 35419 ft 373 kts 240°
2026-05-06 13:29 40.41923 -75.91392 34747 ft 384 kts 234°
2026-05-06 13:29 40.39995 -75.93859 34035 ft 390 kts 232°
2026-05-06 13:29 40.38020 -75.96345 33238 ft 395 kts 232°
2026-05-06 13:30 40.36027 -75.98854 32458 ft 397 kts 231°
2026-05-06 13:30 40.34030 -76.01373 31671 ft 400 kts 231°
2026-05-06 13:30 40.32019 -76.03912 31021 ft 401 kts 230°
2026-05-06 13:30 40.30020 -76.06431 30501 ft 397 kts 230°
2026-05-06 13:31 40.28035 -76.08934 29945 ft 395 kts 230°
2026-05-06 13:31 40.26063 -76.11422 29363 ft 392 kts 229°
2026-05-06 13:31 40.24106 -76.13889 28803 ft 389 kts 229°
2026-05-06 13:31 40.22162 -76.16338 28265 ft 386 kts 230°
2026-05-06 13:32 40.20233 -76.18767 27707 ft 384 kts 230°
2026-05-06 13:32 40.18315 -76.21181 27165 ft 381 kts 229°
2026-05-06 13:32 40.16410 -76.23576 26634 ft 378 kts 229°
2026-05-06 13:32 40.14519 -76.25953 26093 ft 376 kts 229°
2026-05-06 13:33 40.12671 -76.28354 25543 ft 373 kts 232°
2026-05-06 13:33 40.11124 -76.31030 25011 ft 367 kts 240°
2026-05-06 13:33 40.09787 -76.33861 24474 ft 365 kts 242°
2026-05-06 13:33 40.08485 -76.36703 23942 ft 363 kts 242°
2026-05-06 13:34 40.07192 -76.39523 23373 ft 362 kts 242°
2026-05-06 13:34 40.05894 -76.42345 22812 ft 360 kts 242°
2026-05-06 13:34 40.04610 -76.45130 22274 ft 357 kts 241°
2026-05-06 13:34 40.03352 -76.47866 21786 ft 354 kts 241°
2026-05-06 13:35 40.02087 -76.50598 21295 ft 350 kts 241°
2026-05-06 13:35 40.00830 -76.53307 20786 ft 347 kts 240°
2026-05-06 13:35 39.99583 -76.55993 20318 ft 344 kts 240°
2026-05-06 13:35 39.98347 -76.58653 19819 ft 342 kts 240°
2026-05-06 13:36 39.97119 -76.61298 19345 ft 339 kts 240°
2026-05-06 13:36 39.95904 -76.63917 18867 ft 337 kts 240°
2026-05-06 13:36 39.94697 -76.66515 18410 ft 334 kts 240°
2026-05-06 13:36 39.93493 -76.69096 17929 ft 331 kts 240°
2026-05-06 13:37 39.92306 -76.71640 17485 ft 326 kts 239°
2026-05-06 13:37 39.91117 -76.74135 17105 ft 321 kts 236°
2026-05-06 13:37 39.89576 -76.76231 16740 ft 323 kts 221°
2026-05-06 13:37 39.87644 -76.77748 16367 ft 327 kts 211°
2026-05-06 13:38 39.85526 -76.78850 15987 ft 328 kts 204°
2026-05-06 13:38 39.83372 -76.79819 15623 ft 326 kts 204°
2026-05-06 13:38 39.81232 -76.80777 15271 ft 324 kts 204°
2026-05-06 13:38 39.79106 -76.81728 14929 ft 322 kts 204°
2026-05-06 13:39 39.76992 -76.82675 14591 ft 320 kts 204°
2026-05-06 13:39 39.74893 -76.83616 14253 ft 318 kts 204°
2026-05-06 13:39 39.72929 -76.84857 13936 ft 311 kts 218°
2026-05-06 13:39 39.71374 -76.86749 13649 ft 303 kts 229°
2026-05-06 13:40 39.70003 -76.88784 13387 ft 296 kts 230°
2026-05-06 13:40 39.68688 -76.90752 13131 ft 289 kts 230°
2026-05-06 13:40 39.67370 -76.92722 12875 ft 282 kts 230°
2026-05-06 13:40 39.66054 -76.94576 12638 ft 277 kts 229°
2026-05-06 13:41 39.64809 -76.96405 12408 ft 271 kts 230°
2026-05-06 13:41 39.63577 -76.98224 12169 ft 265 kts 229°
2026-05-06 13:41 39.62370 -77.00006 11949 ft 260 kts 229°
2026-05-06 13:41 39.61183 -77.01760 11738 ft 258 kts 229°
2026-05-06 13:42 39.59998 -77.03511 11526 ft 257 kts 229°
2026-05-06 13:42 39.58819 -77.05254 11318 ft 257 kts 229°
2026-05-06 13:42 39.57641 -77.06995 11107 ft 257 kts 229°
2026-05-06 13:42 39.56468 -77.08730 10901 ft 255 kts 229°
2026-05-06 13:43 39.55302 -77.10454 10698 ft 255 kts 229°
2026-05-06 13:43 39.54134 -77.12182 10497 ft 254 kts 229°
2026-05-06 13:43 39.52977 -77.13919 10272 ft 254 kts 229°
2026-05-06 13:43 39.51826 -77.15646 10093 ft 251 kts 229°
2026-05-06 13:44 39.50696 -77.17343 9833 ft 247 kts 229°
2026-05-06 13:44 39.49578 -77.19023 9263 ft 248 kts 229°
2026-05-06 13:44 39.48450 -77.20716 8931 ft 247 kts 229°
2026-05-06 13:44 39.47320 -77.22395 8569 ft 247 kts 228°
2026-05-06 13:45 39.46175 -77.24016 8223 ft 241 kts 229°
2026-05-06 13:45 39.43934 -77.27165 6831 ft 240 kts 229°
2026-05-06 13:45 39.42803 -77.28762 6292 ft 241 kts 229°
2026-05-06 13:46 39.41665 -77.30372 6031 ft 241 kts 229°
2026-05-06 13:46 39.40543 -77.31956 5982 ft 238 kts 229°
2026-05-06 13:46 39.39422 -77.33541 6001 ft 240 kts 229°
2026-05-06 13:46 39.38294 -77.35134 6003 ft 240 kts 229°
2026-05-06 13:47 39.37531 -77.36214 5998 ft 241 kts 229°
2026-05-06 13:47 39.36401 -77.37810 6001 ft 241 kts 229°
2026-05-06 13:47 39.35269 -77.39408 6002 ft 241 kts 229°
2026-05-06 13:47 39.34151 -77.40977 5983 ft 241 kts 228°
2026-05-06 13:48 39.32848 -77.42340 5996 ft 244 kts 213°
2026-05-06 13:48 39.31226 -77.43039 6005 ft 251 kts 193°
2026-05-06 13:48 39.29472 -77.43164 5993 ft 254 kts 187°
2026-05-06 13:48 39.27706 -77.43172 5992 ft 254 kts 186°
2026-05-06 13:49 39.25941 -77.43177 5865 ft 253 kts 187°
2026-05-06 13:49 39.24177 -77.43176 5529 ft 254 kts 187°
2026-05-06 13:49 39.22417 -77.43189 5259 ft 250 kts 187°
2026-05-06 13:49 39.20708 -77.43209 5099 ft 241 kts 187°
2026-05-06 13:50 39.19055 -77.43231 4899 ft 233 kts 188°
2026-05-06 13:50 39.17450 -77.43262 4667 ft 229 kts 188°
2026-05-06 13:50 39.15869 -77.43294 4345 ft 225 kts 187°
2026-05-06 13:50 39.14343 -77.43312 4001 ft 213 kts 187°
2026-05-06 13:51 39.12914 -77.43331 3701 ft 197 kts 188°
2026-05-06 13:51 39.11589 -77.43352 3426 ft 184 kts 189°
2026-05-06 13:51 39.10344 -77.43372 3198 ft 173 kts 189°
2026-05-06 13:51 39.09200 -77.43388 2976 ft 158 kts 189°
2026-05-06 13:52 39.08148 -77.43402 2803 ft 143 kts 189°
2026-05-06 13:52 39.07185 -77.43421 2603 ft 141 kts 189°
2026-05-06 13:52 39.06200 -77.43438 2426 ft 141 kts 188°
2026-05-06 13:52 39.05224 -77.43452 2231 ft 140 kts 188°
2026-05-06 13:53 39.04260 -77.43466 2041 ft 138 kts 186°
2026-05-06 13:53 39.03321 -77.43479 1853 ft 127 kts 186°
2026-05-06 13:53 39.02451 -77.43494 1693 ft 126 kts 186°
2026-05-06 13:53 39.01572 -77.43508 1518 ft 129 kts 185°
2026-05-06 13:54 39.00670 -77.43521 1337 ft 129 kts 184°
2026-05-06 13:54 38.99773 -77.43535 1166 ft 129 kts 182°
2026-05-06 13:54 38.98874 -77.43545 977 ft 129 kts 182°
2026-05-06 13:54 38.97992 -77.43558 828 ft 127 kts 184°
2026-05-06 13:55 38.97112 -77.43582 668 ft 126 kts 179°
2026-05-06 13:55 38.96256 -77.43584 505 ft 122 kts 180°
2026-05-06 13:55 38.95400 -77.43598 310 ft 124 kts 179°
2026-05-06 13:55 38.94697 -77.43610 306 ft 75 kts 181°
2026-05-06 13:56 38.94343 -77.43614 308 ft 33 kts 181°
2026-05-06 13:56 38.94165 -77.43618 312 ft 22 kts 181°
2026-05-06 13:56 38.94027 -77.43651 309 ft 18 kts 198°
2026-05-06 13:56 38.93922 -77.43707 308 ft 16 kts 207°
2026-05-06 13:57 38.93842 -77.43766 301 ft 6 kts 210°
2026-05-06 13:57 38.93838 -77.43769 301 ft 0 kts 210°
2026-05-06 13:59 38.93823 -77.43780 304 ft 7 kts 210°
2026-05-06 13:59 38.93795 -77.43834 302 ft 7 kts 266°
2026-05-06 13:59 38.93830 -77.43874 300 ft 8 kts 347°
2026-05-06 14:00 38.93899 -77.43875 302 ft 12 kts
2026-05-06 14:00 38.93994 -77.43874 302 ft 15 kts
2026-05-06 14:00 38.94096 -77.43872 303 ft 14 kts
2026-05-06 14:00 38.94205 -77.43871 300 ft 18 kts
2026-05-06 14:01 38.94333 -77.43869 301 ft 18 kts
2026-05-06 14:01 38.94457 -77.43867 300 ft 18 kts
2026-05-06 14:01 38.94578 -77.43865 300 ft 18 kts
2026-05-06 14:01 38.94700 -77.43864 302 ft 17 kts
2026-05-06 14:02 38.94821 -77.43862 299 ft 17 kts
2026-05-06 14:02 38.94934 -77.43860 300 ft 12 kts
2026-05-06 14:02 38.94992 -77.43866 299 ft 6 kts 338°
2026-05-06 14:02 38.95012 -77.43925 300 ft 10 kts 277°
2026-05-06 14:03 38.95021 -77.44021 296 ft 11 kts 276°
2026-05-06 14:03 38.95022 -77.44119 296 ft 12 kts 270°
2026-05-06 14:03 38.95023 -77.44234 298 ft 14 kts 270°
2026-05-06 14:03 38.95024 -77.44379 296 ft 17 kts 270°
2026-05-06 14:04 38.95025 -77.44525 298 ft 16 kts 271°
2026-05-06 14:04 38.95027 -77.44664 296 ft 15 kts 271°
2026-05-06 14:04 38.95028 -77.44796 300 ft 14 kts 270°
2026-05-06 14:04 38.95028 -77.44918 300 ft 13 kts 270°
2026-05-06 14:05 38.95029 -77.45023 300 ft 10 kts 270°
2026-05-06 14:05 38.95024 -77.45082 299 ft 4 kts 242°
2026-05-06 14:05 38.95001 -77.45097 298 ft 5 kts 202°
2026-05-06 14:05 38.94970 -77.45105 299 ft 4 kts 188°
2026-05-06 14:06 38.94946 -77.45110 299 ft 2 kts 188°
2026-05-06 14:06 38.94935 -77.45112 300 ft 0 kts 188°